DW3733 Weather Reports


time (UTC)temp
C
wind
direction
speed
KPH
gust
KPH
rain 1hr
cm
rain 24hr
cm
rain mn
cm
humidity
%
barometer
mb
20260507183309 16 0 1.6 3.2 0.00 0.00 0.00 67 1012.1
20260507182809 17 131 1.6 1.6 0.00 0.00 0.00 66 1012.0
20260507182309 17 90 1.6 3.2 0.00 0.00 0.00 65 1012.0
20260507181809 17 94 1.6 1.6 0.00 0.00 0.00 64 1011.9
20260507181309 18 97 1.6 1.6 0.00 0.00 0.00 63 1011.9
20260507180810 18 90 1.6 3.2 0.00 0.00 0.00 62 1012.0
20260507180309 18 135 1.6 4.8 0.00 0.00 0.00 61 1011.9
20260507175809 18 315 1.6 4.8 0.00 0.00 0.00 61 1011.7
20260507174318 19 315 3.2 4.8 0.00 0.00 0.00 60 1011.9
20260507173809 19 0 1.6 4.8 0.00 0.00 0.00 60 1012.2
20260507173310 19 315 3.2 4.8 0.00 0.00 0.00 60 1012.2
20260507172810 20 335 3.2 11.3 0.00 0.00 0.00 60 1012.1
20260507172319 20 356 3.2 4.8 0.00 0.00 0.00 60 1012.0
20260507170809 20 336 3.2 4.8 0.00 0.00 0.00 60 1011.9
20260507170310 20 90 1.6 8.0 0.00 0.00 0.00 60 1012.0
20260507165809 20 0 3.2 8.0 0.00 0.00 0.00 59 1012.0
20260507165312 20 110 4.8 8.0 0.00 0.00 0.00 59 1012.0
20260507164818 21 345 3.2 8.0 0.00 0.00 0.00 58 1012.1
20260507162809 21 125 4.8 11.3 0.00 0.00 0.00 56 1012.0
20260507162312 21 0 3.2 9.7 0.00 0.00 0.00 56 1012.1
20260507160809 21 324 4.8 9.7 0.00 0.00 0.00 56 1011.8
20260507154811 22 315 8.0 12.9 0.00 0.00 0.00 55 1011.9
20260507154310 22 353 4.8 9.7 0.00 0.00 0.00 55 1011.9
20260507153809 22 315 3.2 11.3 0.00 0.00 0.00 55 1011.8
20260507152809 22 310 3.2 12.9 0.00 0.00 0.00 56 1011.7
20260507151811 22 352 8.0 12.9 0.00 0.00 0.00 56 1011.9
20260507151309 22 270 3.2 11.3 0.00 0.00 0.00 57 1012.0
20260507150810 22 82 8.0 12.9 0.00 0.00 0.00 55 1012.1
20260507150312 22 141 3.2 12.9 0.00 0.00 0.00 56 1012.0
20260507145810 22 83 4.8 12.9 0.00 0.00 0.00 55 1012.1
20260507145312 23 315 4.8 9.7 0.00 0.00 0.00 56 1012.2
20260507144809 22 135 6.4 9.7 0.00 0.00 0.00 55 1012.2
20260507143809 22 0 6.4 9.7 0.00 0.00 0.00 54 1012.6
20260507143309 22 318 4.8 12.9 0.00 0.00 0.00 55 1012.6
20260507142810 23 319 6.4 12.9 0.00 0.00 0.00 55 1012.5
20260507142309 23 321 6.4 12.9 0.00 0.00 0.00 57 1012.7
20260507141809 22 0 8.0 12.9 0.00 0.00 0.00 56 1012.4
20260507141309 22 357 3.2 14.5 0.00 0.00 0.00 56 1012.6
20260507140809 23 357 4.8 9.7 0.00 0.00 0.00 54 1012.8
20260507140309 23 315 3.2 12.9 0.00 0.00 0.00 53 1012.9
20260507134809 23 315 9.7 16.1 0.00 0.00 0.00 53 1012.9
20260507134309 23 340 9.7 12.9 0.00 0.00 0.00 54 1012.9
20260507133809 23 0 6.4 12.9 0.00 0.00 0.00 55 1012.9
20260507133309 23 337 4.8 16.1 0.00 0.00 0.00 55 1012.7
20260507132808 23 0 8.0 12.9 0.00 0.00 0.00 54 1012.8
20260507132309 23 335 9.7 16.1 0.00 0.00 0.00 54 1013.0
20260507131312 23 0 4.8 12.9 0.00 0.00 0.00 55 1013.1
20260507130812 23 87 9.7 12.9 0.00 0.00 0.00 56 1013.2
20260507130309 23 0 8.0 12.9 0.00 0.00 0.00 56 1013.4
20260507125809 23 357 9.7 12.9 0.00 0.00 0.00 55 1013.5
20260507125311 23 323 6.4 12.9 0.00 0.00 0.00 56 1013.3
20260507124309 23 130 4.8 9.7 0.00 0.00 0.00 57 1013.5
20260507123813 23 90 4.8 9.7 0.00 0.00 0.00 59 1013.6
20260507123309 23 0 4.8 12.9 0.00 0.00 0.00 60 1013.6
20260507122809 23 354 6.4 11.3 0.00 0.00 0.00 59 1013.6
20260507122310 22 318 6.4 9.7 0.00 0.00 0.00 59 1013.6
20260507121309 22 315 6.4 9.7 0.00 0.00 0.00 59 1013.7
20260507120810 23 270 4.8 4.8 0.00 0.00 0.00 57 1013.8
20260507120308 23 270 4.8 8.0 0.00 0.00 0.00 57 1013.9
20260507115809 23 285 4.8 12.9 0.00 0.00 0.00 58 1013.9
20260507115308 23 87 4.8 9.7 0.00 0.00 0.00 60 1014.0
20260507114810 22 276 4.8 9.7 0.00 0.00 0.00 60 1014.1
20260507112809 22 315 3.2 12.9 0.00 0.00 0.00 60 1014.5
20260507112312 22 315 4.8 9.7 0.00 0.00 0.00 60 1014.4
20260507111810 22 0 4.8 8.0 0.00 0.00 0.00 61 1014.4
20260507111308 22 232 4.8 9.7 0.00 0.00 0.00 62 1014.6
20260507110310 22 0 4.8 9.7 0.00 0.00 0.00 61 1014.6
20260507105810 22 319 3.2 14.5 0.00 0.00 0.00 62 1014.5
20260507105309 22 3 8.0 14.5 0.00 0.00 0.00 62 1014.8
20260507104809 21 318 6.4 11.3 0.00 0.00 0.00 62 1014.7
20260507104309 21 0 4.8 14.5 0.00 0.00 0.00 65 1014.3
20260507103809 21 0 9.7 12.9 0.00 0.00 0.00 64 1014.6
20260507103308 21 356 6.4 9.7 0.00 0.00 0.00 62 1014.8
20260507102810 21 320 4.8 12.9 0.00 0.00 0.00 63 1014.8
20260507102309 21 183 3.2 8.0 0.00 0.00 0.00 67 1014.8
20260507101809 21 315 4.8 12.9 0.00 0.00 0.00 68 1014.9
20260507101310 21 0 8.0 12.9 0.00 0.00 0.00 67 1015.0
20260507100808 21 350 6.4 14.5 0.00 0.00 0.00 66 1015.1
20260507100318 21 315 12.9 14.5 0.00 0.00 0.00 66 1014.8
20260507094808 21 90 4.8 11.3 0.00 0.00 0.00 68 1015.1
20260507094312 21 0 6.4 11.3 0.00 0.00 0.00 68 1015.2
20260507093809 21 350 8.0 12.9 0.00 0.00 0.00 68 1015.2
20260507093308 20 315 4.8 9.7 0.00 0.00 0.00 67 1015.2
20260507092810 21 0 4.8 12.9 0.00 0.00 0.00 67 1015.1
20260507092308 21 340 8.0 12.9 0.00 0.00 0.00 66 1015.1
20260507091810 21 358 4.8 9.7 0.00 0.00 0.00 66 1015.2
20260507090809 21 276 4.8 9.7 0.00 0.00 0.00 62 1015.1
20260507090309 22 315 3.2 4.8 0.00 0.00 0.00 62 1015.2
20260507085809 22 310 1.6 4.8 0.00 0.00 0.00 66 1015.3
20260507085308 21 176 1.6 4.8 0.00 0.00 0.00 71 1015.3
20260507084809 21 356 3.2 4.8 0.00 0.00 0.00 71 1015.3
20260507084309 20 320 3.2 4.8 0.00 0.00 0.00 73 1015.4
20260507083808 20 225 1.6 4.8 0.00 0.00 0.00 74 1015.6
20260507082809 19 139 1.6 4.8 0.00 0.00 0.00 75 1015.7
20260507082309 18 228 1.6 1.6 0.00 0.00 0.00 76 1015.7
20260507081809 18 103 1.6 4.8 0.00 0.00 0.00 76 1015.6
20260507081309 18 219 1.6 4.8 0.00 0.00 0.00 76 1015.8
20260507080822 18 90 1.6 4.8 0.00 0.00 0.00 77 1015.9
20260507080308 18 90 0.0 1.6 0.00 0.00 0.00 78 1015.8
20260507075809 18 221 1.6 1.6 0.00 0.00 0.00 78 1016.0
20260507075309 18 225 1.6 1.6 0.00 0.00 0.00 78 1016.1
20260507074809 18 183 0.0 1.6 0.00 0.00 0.00 79 1016.1
20260507073809 18 311 1.6 1.6 0.00 0.00 0.00 80 1016.1
20260507073309 18 270 1.6 1.6 0.00 0.00 0.00 80 1016.1
20260507072809 17 356 1.6 3.2 0.00 0.00 0.00 80 1015.9
20260507071308 17 333 1.6 4.8 0.00 0.00 0.00 81 1015.9
20260507070809 17 0 3.2 8.0 0.00 0.00 0.00 82 1016.1
20260507070310 17 0 4.8 8.0 0.00 0.00 0.00 82 1016.1
20260507065309 17 311 0.0 3.2 0.00 0.00 0.00 83 1016.1
20260507063809 17 318 3.2 4.8 0.00 0.00 0.00 84 1016.1
20260507060309 17 315 0.0 1.6 0.00 0.00 0.00 84 1016.4
20260507055811 17 315 1.6 1.6 0.00 0.00 0.00 85 1016.3
20260507055309 17 332 1.6 3.2 0.00 0.00 0.00 85 1016.3
20260507054310 17 276 3.2 4.8 0.00 0.00 0.00 87 1016.3
20260507053809 16 324 1.6 3.2 0.00 0.00 0.00 87 1016.4
20260507053312 16 180 1.6 3.2 0.00 0.00 0.00 88 1016.5
20260507052808 16 319 0.0 1.6 0.00 0.00 0.00 91 1016.4
20260507051809 16 318 0.0 1.6 0.00 0.00 0.00 91 1016.3
20260507050809 16 261 1.6 1.6 0.00 0.00 0.00 91 1016.6
20260507045309 16 135 0.0 0.0 0.00 0.00 0.00 90 1016.3
20260507044809 16 135 0.0 0.0 0.00 0.00 0.00 90 1016.3
20260507044309 16 0 0.0 0.0 0.00 0.00 0.00 90 1016.2
20260507043809 16 0 0.0 0.0 0.00 0.00 0.00 90 1016.1
20260507043308 16 6 0.0 0.0 0.00 0.00 0.00 90 1016.1
20260507042810 16 225 0.0 0.0 0.00 0.00 0.00 90 1016.1
20260507042309 16 225 0.0 0.0 0.00 0.00 0.00 90 1016.0
20260507041809 16 225 0.0 1.6 0.00 0.00 0.00 91 1016.0
20260507041308 16 225 1.6 1.6 0.00 0.00 0.00 91 1016.1
20260507040810 16 315 1.6 1.6 0.00 0.00 0.00 91 1016.1
20260507040309 16 0 0.0 1.6 0.00 0.00 0.00 91 1015.9
20260507035809 16 228 0.0 1.6 0.00 0.00 0.00 91 1016.0
20260507035309 16 225 1.6 1.6 0.00 0.00 0.00 90 1015.9
20260507034309 15 225 0.0 0.0 0.00 0.00 0.00 90 1015.5
20260507033812 15 267 0.0 1.6 0.00 0.00 0.00 90 1015.7
20260507033308 15 270 1.6 1.6 0.00 0.00 0.00 90 1015.5
20260507032809 15 0 1.6 1.6 0.00 0.00 0.00 89 1015.6
20260507032310 15 94 1.6 3.2 0.00 0.00 0.00 89 1015.6
20260507031810 15 225 0.0 0.0 0.00 0.00 0.00 88 1015.9
20260507030810 15 225 1.6 1.6 0.00 0.00 0.00 87 1015.5
20260507030310 15 0 1.6 1.6 0.00 0.00 0.00 87 1015.2
20260507025808 15 315 1.6 1.6 0.00 0.00 0.00 87 1015.5
20260507024808 16 90 1.6 3.2 0.00 0.00 0.00 87 1014.9
20260507024309 16 85 1.6 3.2 0.00 0.00 0.00 88 1014.8
20260507023809 16 351 1.6 3.2 0.00 0.00 0.00 88 1015.2
20260507023312 16 225 1.6 4.8 0.00 0.00 0.00 89 1015.3
20260507022808 15 208 3.2 9.7 0.00 0.00 0.00 88 1015.0
20260507022310 15 225 4.8 4.8 0.00 0.00 0.00 88 1014.6
20260507021809 15 225 0.0 1.6 0.00 0.00 0.00 88 1015.4
20260507020814 15 219 0.0 1.6 0.00 0.00 0.00 88 1015.5
20260507020308 15 112 0.0 1.6 0.00 0.00 0.00 88 1015.5
20260507014809 15 85 1.6 1.6 0.00 0.00 0.00 87 1015.6
20260507014308 15 90 1.6 3.2 0.00 0.00 0.00 86 1015.7
20260507013809 15 95 1.6 3.2 0.00 0.00 0.00 86 1015.8
20260507013309 16 225 0.0 0.0 0.00 0.00 0.00 86 1015.8
20260507012808 16 307 0.0 1.6 0.00 0.00 0.00 86 1015.4
20260507012308 15 315 1.6 1.6 0.00 0.00 0.00 86 1015.3
20260507011808 15 227 0.0 0.0 0.00 0.00 0.00 86 1015.2
20260507010812 16 84 0.0 3.2 0.00 0.00 0.00 86 1015.1
20260507010312 16 90 1.6 3.2 0.00 0.00 0.00 86 1015.3
20260507005809 16 0 1.6 1.6 0.00 0.00 0.00 86 1015.3
20260507005309 16 84 1.6 3.2 0.00 0.00 0.00 86 1015.5
20260507004811 16 6 0.0 1.6 0.00 0.00 0.00 86 1015.6
20260507004308 16 315 0.0 1.6 0.00 0.00 0.00 86 1015.7
20260507003808 16 90 1.6 1.6 0.00 0.00 0.00 86 1015.6
20260507003309 16 90 0.0 1.6 0.00 0.00 0.00 86 1015.5
20260507002809 16 139 0.0 1.6 0.00 0.00 0.00 86 1015.3
20260507002310 16 225 0.0 1.6 0.00 0.00 0.00 87 1015.3
20260507001812 16 180 0.0 1.6 0.00 0.00 0.00 87 1015.1
20260507000809 16 225 1.6 1.6 0.00 0.00 0.00 87 1014.9
20260507000309 16 225 1.6 4.8 0.00 0.00 0.00 88 1015.0
20260506235817 16 90 3.2 4.8 0.00 0.00 0.00 88 1015.0
20260506235309 15 90 3.2 9.7 0.00 0.00 0.00 88 1015.1
20260506234809 15 90 4.8 8.0 0.00 0.00 0.00 88 1014.9
20260506234309 15 93 3.2 8.0 0.00 0.00 0.00 88 1015.0
20260506233808 15 180 3.2 4.8 0.00 0.00 0.00 88 1014.8
20260506233309 15 205 3.2 4.8 0.00 0.00 0.00 87 1014.6
20260506232308 16 184 1.6 3.2 0.00 0.00 0.00 87 1014.6
20260506231809 16 180 1.6 4.8 0.00 0.00 0.00 87 1014.4
20260506231309 16 179 1.6 3.2 0.00 0.00 0.00 87 1013.9
20260506230814 16 90 1.6 3.2 0.00 0.00 0.00 87 1013.7
20260506230308 16 0 3.2 9.7 0.00 0.00 0.00 87 1014.1
20260506225309 16 221 1.6 1.6 0.00 0.00 0.00 88 1014.4
20260506224809 16 225 0.0 3.2 0.00 0.00 0.00 89 1014.1
20260506223813 16 0 0.0 3.2 0.00 0.00 0.00 90 1014.4
20260506223308 16 353 1.6 3.2 0.00 0.00 0.00 90 1014.6
20260506222309 15 180 0.0 1.6 0.00 0.00 0.00 91 1014.7
20260506221308 15 315 0.0 1.6 0.00 0.00 0.00 91 1014.5
20260506220817 15 138 0.0 1.6 0.00 0.00 0.00 91 1014.4
20260506215312 15 6 1.6 3.2 0.00 0.00 0.00 89 1014.4
20260506214808 15 126 1.6 3.2 0.00 0.00 0.00 89 1014.2
20260506214309 15 0 1.6 3.2 0.00 0.00 0.00 89 1014.4
20260506213809 15 183 1.6 1.6 0.00 0.00 0.00 89 1014.3
20260506213308 15 315 0.0 1.6 0.00 0.00 0.00 89 1014.1
20260506212308 16 90 0.0 1.6 0.00 0.00 0.00 89 1014.2
20260506211809 16 219 0.0 1.6 0.00 0.00 0.00 89 1014.1
20260506211309 16 140 0.0 0.0 0.00 0.00 0.00 89 1014.0
20260506210809 16 315 0.0 1.6 0.00 0.00 0.00 89 1014.0
20260506210308 16 184 0.0 1.6 0.00 0.00 0.00 89 1014.0
20260506205808 16 320 0.0 0.0 0.00 0.00 0.00 89 1014.0
20260506205309 16 90 0.0 0.0 0.00 0.00 0.00 89 1014.1
20260506204308 16 135 0.0 0.0 0.00 0.00 0.00 89 1014.3
20260506203808 16 270 0.0 1.6 0.00 0.00 0.00 89 1014.4
20260506202809 16 90 0.0 1.6 0.00 0.00 0.00 88 1014.7
20260506201809 16 90 1.6 1.6 0.00 0.00 0.00 87 1014.7
20260506200810 16 85 0.0 1.6 0.00 0.00 0.00 86 1014.8
20260506195809 16 356 0.0 0.0 0.00 0.00 0.00 86 1014.9
20260506195309 16 315 0.0 0.0 0.00 0.00 0.00 86 1014.8
20260506194808 16 315 0.0 0.0 0.00 0.00 0.00 85 1014.7
20260506194318 16 270 0.0 1.6 0.00 0.00 0.00 85 1014.6
20260506193308 16 90 1.6 1.6 0.00 0.00 0.00 84 1014.5
20260506192809 16 90 0.0 1.6 0.00 0.00 0.00 84 1014.4
20260506192318 16 96 0.0 0.0 0.00 0.00 0.00 83 1014.5
20260506191808 16 270 0.0 1.6 0.00 0.00 0.00 83 1014.4
20260506191309 16 90 1.6 1.6 0.00 0.00 0.00 82 1014.3
20260506190809 16 135 0.0 0.0 0.00 0.00 0.00 80 1014.2
20260506190308 16 90 0.0 1.6 0.00 0.03 0.00 79 1014.3
20260506185808 17 90 0.0 1.6 0.00 0.03 0.00 79 1014.1
20260506185308 17 6 0.0 1.6 0.00 0.03 0.00 78 1014.1
20260506184808 17 81 1.6 1.6 0.00 0.03 0.00 78 1013.9
20260506184308 17 174 0.0 1.6 0.00 0.03 0.00 77 1013.8
20260506183809 17 90 1.6 1.6 0.00 0.03 0.00 76 1013.9